Location: Dammartin
(48.9032°N, 1.6195°E)
Time: 11:51:53
(UTC+00:00)

Meteor 1-11 - Pass Details

Date: 03 February 2023
Orbit: 839 x 888 km, 81.2° (Epoch: 29 March)

Event Time Altitude Azimuth Distance (km) Brightness Sun altitude
Rises 17:46:15 0° 172° (S) 3,482 7.5 -8.9°
Reaches altitude 10° 17:48:45 10° 167° (SSE) 2,546 6.7 -9.3°
Maximum altitude 17:54:19 50° 94° (E) 1,123 4.5 -10.2°
Drops below altitude 10° 17:59:53 10° 21° (NNE) 2,548 6.4 -11.1°
Sets 18:02:23 0° 16° (NNE) 3,485 7.1 -11.5°
